Location: Winnipeg
(49.8830°N, 97.1670°W)
Time: 04:19:04
(UTC-06:00)

ISS - Pass Details

Date: 29 January 2021
Orbit: 417 x 422 km, 51.6° (Epoch: 07 March)

Event Time Altitude Azimuth Distance (km) Brightness Sun altitude
Rises 20:23:39 0° 288° (WNW) 2,377 1.2 -29.7°
Reaches altitude 10° 20:25:47 10° 283° (WNW) 1,511 0.0 -30.0°
Enters shadow 20:26:31 15° 279° (W) 1,227 -0.6 -30.1°
